Printer-friendly version

IAU Minor Planet Center

Minor Planet Center

183P/Korlevic-Juric

Orbital Elements

The following orbital elements are taken from MPC 58540:
183P/Korlevic-Juric
Epoch 2008 May 14.0 TT = JDT 2454600.5
T 2008 May  9.1170 TT                                   MPC
q   3.893979             (2000.0)            P               Q
n   0.1030437      Peri.  161.6770      -0.9746770      -0.2212149
a   4.505971       Node     5.8431      +0.1429124      -0.7286588
e   0.135818       Incl.   18.7306      +0.1719908      -0.6481668
P   9.56
From 54 observations 1954-2006, mean residual 0".7.
Elements are also available for the current standard epoch:
183P/Korlevic-Juric
Epoch 2009 June 18.0 TT = JDT 2455000.5
T 2008 May 8.2012 TT                                    MPC
q   3.893760             (2000.0)            P               Q
n   0.1031701      Peri.  161.5580      -0.9742220      -0.2232069
a   4.502290       Node     5.8453      +0.1443725      -0.7283098
e   0.135160       Incl.   18.7358      +0.1733436      -0.6478762
P   9.55
An explanation of the orbital elements is available.

These orbital elements are also available in forms suitable for loading into a number of popular planetarium-type software programs.


Ephemeris

The following ephemeris is at intervals of five days. A daily ephemeris covering the same time interval is also available.

Personalized ephemerides for this (and other) objects may be generated using the Minor Planet & Comet Ephemeris Service.

Recent magnitude estimates for this comet (as reported to the ICQ) may be available.

Date    TT    R. A. (2000) Decl.     Delta      r     Elong.  Phase   m1    m2

WARNING!

This comet gets close to the sun during the period covered in the ephemeris below. Observers are warned to be wary of observing comets near the sun. NEVER point any kind of optical instrument at the sun--instant blindness will be the probable result.

2009 06 08 13 21.46 -22 06.9 3.370 4.083 128.8 11.2 18.9 2009 06 13 13 20.83 -22 02.3 3.431 4.087 124.0 11.9 19.0 2009 06 18 13 20.62 -21 59.2 3.497 4.092 119.4 12.5 19.0 2009 06 23 13 20.83 -21 57.9 3.565 4.096 114.8 13.0 19.1 2009 06 28 13 21.45 -21 58.3 3.636 4.101 110.3 13.4 19.1 2009 07 03 13 22.47 -22 00.5 3.709 4.105 105.9 13.8 19.2 2009 07 08 13 23.86 -22 04.7 3.784 4.110 101.5 14.0 19.3 2009 07 13 13 25.62 -22 10.6 3.860 4.114 97.3 14.2 19.3 2009 07 18 13 27.73 -22 18.4 3.936 4.119 93.1 14.3 19.4 2009 07 23 13 30.16 -22 28.0 4.013 4.124 89.1 14.3 19.4 2009 07 28 13 32.91 -22 39.4 4.090 4.128 85.0 14.2 19.4 2009 08 02 13 35.95 -22 52.4 4.167 4.133 81.1 14.0 19.5 2009 08 07 13 39.26 -23 07.0 4.242 4.138 77.2 13.8 19.5 2009 08 12 13 42.84 -23 23.1 4.317 4.143 73.4 13.6 19.5 2009 08 17 13 46.65 -23 40.5 4.390 4.148 69.6 13.2 19.6 2009 08 22 13 50.71 -23 59.3 4.462 4.152 65.9 12.8 19.6 2009 08 27 13 54.98 -24 19.2 4.531 4.157 62.2 12.4 19.6 2009 09 01 13 59.45 -24 40.3 4.598 4.162 58.6 11.9 19.6 2009 09 06 14 04.11 -25 02.4 4.663 4.167 55.0 11.4 19.6 2009 09 11 14 08.96 -25 25.3 4.725 4.172 51.4 10.9 19.7 2009 09 16 14 13.97 -25 49.1 4.784 4.177 47.9 10.3 19.7 2009 09 21 14 19.14 -26 13.6 4.839 4.182 44.4 9.7 19.7 2009 09 26 14 24.46 -26 38.7 4.892 4.187 41.0 9.0 19.7 2009 10 01 14 29.92 -27 04.3 4.941 4.192 37.6 8.4 19.7 2009 10 06 14 35.50 -27 30.4 4.986 4.197 34.2 7.7 19.7 2009 10 11 14 41.20 -27 56.8 5.027 4.202 30.9 7.0 19.6 2009 10 16 14 47.01 -28 23.5 5.064 4.207 27.7 6.3 19.6 2009 10 21 14 52.93 -28 50.4 5.098 4.213 24.6 5.6 19.6 2009 10 26 14 58.94 -29 17.5 5.127 4.218 21.6 5.0 19.6 2009 10 31 15 05.02 -29 44.6 5.151 4.223 18.7 4.3 19.6 2009 11 05 15 11.18 -30 11.7 5.171 4.228 16.2 3.8 19.6 2009 11 10 15 17.40 -30 38.7 5.187 4.233 14.1 3.3 19.5 2009 11 15 15 23.68 -31 05.7 5.198 4.239 12.7 2.9 19.5 2009 11 20 15 30.00 -31 32.4 5.205 4.244 12.2 2.8 19.5 2009 11 25 15 36.35 -31 59.0 5.206 4.249 12.7 2.9 19.5 2009 11 30 15 42.72 -32 25.4 5.204 4.254 14.2 3.3 19.5 2009 12 05 15 49.09 -32 51.5 5.196 4.260 16.3 3.7 19.6 2009 12 10 15 55.47 -33 17.3 5.185 4.265 18.9 4.3 19.6 2009 12 15 16 01.83 -33 42.8 5.168 4.270 21.9 4.9 19.6 2009 12 20 16 08.16 -34 08.0 5.147 4.276 25.0 5.6 19.7 2009 12 25 16 14.45 -34 32.9 5.122 4.281 28.3 6.2 19.7 2009 12 30 16 20.67 -34 57.5 5.092 4.286 31.6 6.9 19.7 2010 01 04 16 26.82 -35 21.8 5.059 4.292 35.1 7.6 19.7 2010 01 09 16 32.89 -35 45.8 5.021 4.297 38.7 8.2 19.7 2010 01 14 16 38.85 -36 09.6 4.979 4.302 42.3 8.8 19.8 2010 01 19 16 44.68 -36 33.2 4.934 4.308 45.9 9.4 19.8 2010 01 24 16 50.37 -36 56.7 4.885 4.313 49.6 10.0 19.8 2010 01 29 16 55.89 -37 20.0 4.833 4.319 53.4 10.5 19.8 2010 02 03 17 01.23 -37 43.2 4.778 4.324 57.2 11.0 19.8 2010 02 08 17 06.37 -38 06.5 4.721 4.330 61.0 11.5 19.8 2010 02 13 17 11.29 -38 29.7 4.661 4.335 64.9 11.9 19.7 2010 02 18 17 15.95 -38 53.1 4.598 4.341 68.8 12.3 19.7 2010 02 23 17 20.34 -39 16.6 4.534 4.346 72.8 12.6 19.7 2010 02 28 17 24.43 -39 40.3 4.469 4.352 76.8 12.8 19.7 2010 03 05 17 28.20 -40 04.3 4.402 4.357 80.9 13.0 19.7 2010 03 10 17 31.63 -40 28.5 4.335 4.363 85.0 13.1 19.6 2010 03 15 17 34.69 -40 52.9 4.267 4.368 89.2 13.2 19.6 2010 03 20 17 37.34 -41 17.7 4.200 4.374 93.4 13.1 19.6 2010 03 25 17 39.57 -41 42.7 4.133 4.379 97.7 13.0 19.6 2010 03 30 17 41.35 -42 07.8 4.067 4.385 102.0 12.9 19.5 2010 04 04 17 42.66 -42 33.0 4.002 4.390 106.4 12.6 19.5 2010 04 09 17 43.48 -42 58.2 3.940 4.396 110.8 12.3 19.4 2010 04 14 17 43.79 -43 23.2 3.880 4.401 115.2 11.9 19.4 2010 04 19 17 43.58 -43 47.8 3.822 4.407 119.6 11.4 19.3 2010 04 24 17 42.84 -44 11.7 3.769 4.412 124.1 10.9 19.3 2010 04 29 17 41.57 -44 34.6 3.719 4.418 128.6 10.3 19.2 2010 05 04 17 39.79 -44 56.2 3.674 4.423 133.0 9.6 19.2 2010 05 09 17 37.52 -45 16.2 3.634 4.429 137.3 8.9 19.1 2010 05 14 17 34.78 -45 34.2 3.598 4.434 141.5 8.2 19.1 2010 05 19 17 31.61 -45 49.9 3.569 4.440 145.5 7.4 19.0 2010 05 24 17 28.09 -46 02.9 3.546 4.445 149.1 6.7 19.0 2010 05 29 17 24.28 -46 13.0 3.528 4.451 152.3 6.1 19.0 2010 06 03 17 20.25 -46 19.9 3.518 4.456 154.8 5.6 18.9 2010 06 08 17 16.08 -46 23.5 3.514 4.462 156.3 5.3 18.9 2010 06 13 17 11.87 -46 23.8 3.517 4.467 156.7 5.2 18.9 2010 06 18 17 07.72 -46 20.8 3.526 4.473 155.9 5.3 18.9 2010 06 23 17 03.70 -46 14.6 3.543 4.478 154.0 5.7 19.0 2010 06 28 16 59.92 -46 05.5 3.565 4.484 151.3 6.3 19.0 2010 07 03 16 56.42 -45 53.9 3.595 4.489 148.0 6.9 19.1 2010 07 08 16 53.29 -45 40.0 3.630 4.495 144.3 7.6 19.1 2010 07 13 16 50.57 -45 24.2 3.671 4.500 140.3 8.3 19.2

Back to Observable Comets


Valid HTML 4.01!